CDT,Max TemperatureF,Mean TemperatureF,Min TemperatureF,Max Dew PointF,MeanDew PointF,Min DewpointF,Max Humidity, Mean Humidity, Min Humidity, Max Sea Level PressureIn, Mean Sea Level PressureIn, Min Sea Level PressureIn, Max VisibilityMiles, Mean VisibilityMiles, Min VisibilityMiles, Max Wind SpeedMPH, Mean Wind SpeedMPH, Max Gust SpeedMPH,PrecipitationIn, CloudCover, Events, WindDirDegrees
2013-9-1,86,74,63,68,60,50,92,69,31,29.87,29.79,29.74,10,10,7,15,5,25,0.00,2,,270
2013-9-2,70,60,50,57,51,47,90,67,43,30.04,29.98,29.87,10,10,10,12,6,17,0.00,4,,332
2013-9-3,74,58,42,52,47,41,95,68,36,30.12,30.06,30.02,10,9,0,10,2,,0.00,0,Fog,258
2013-9-4,85,68,50,61,54,47,91,64,30,30.14,30.09,30.04,10,10,10,10,3,,0.00,0,,283
2013-9-5,78,68,58,61,55,47,91,67,41,30.28,30.23,30.15,10,9,3,13,6,16,0.00,3,,103
2013-9-6,87,70,54,61,53,43,71,54,36,30.22,30.11,29.97,10,10,10,13,6,20,0.00,1,,198
2013-9-7,91,80,70,68,62,58,79,57,39,30.00,29.93,29.89,10,10,10,18,7,24,0.00,2,,225
2013-9-8,70,66,61,64,59,55,82,76,68,30.10,30.04,29.96,10,10,5,16,10,26,0.00,8,,86
2013-9-9,93,78,63,70,64,60,90,65,44,29.97,29.85,29.77,10,9,5,14,6,18,0.00,3,,182
2013-9-10,94,84,74,64,60,56,61,47,30,29.98,29.90,29.81,10,10,10,18,10,25,0.00,1,,247
2013-9-11,82,74,64,65,63,59,92,71,50,30.09,30.02,29.98,10,10,4,13,4,17,0.14,3,Rain-Thunderstorm,241
2013-9-12,71,63,54,59,49,41,93,63,35,30.17,30.06,29.99,10,10,7,14,5,26,0.00,2,,331
2013-9-13,66,54,41,42,37,31,93,58,28,30.25,30.20,30.14,10,10,2,9,3,10,0.00,0,,54
2013-9-14,71,57,43,45,41,38,87,57,32,30.17,30.09,29.98,10,10,10,13,5,17,0.00,1,Rain,210
2013-9-15,63,58,53,55,52,46,92,83,63,30.26,30.06,29.96,10,8,2,14,4,20,0.63,7,Rain,86
2013-9-16,63,52,41,49,41,37,91,67,39,30.42,30.36,30.27,10,10,2,13,7,,0.01,2,,67
2013-9-17,67,52,39,54,47,38,95,77,53,30.35,30.24,30.07,10,10,5,14,3,,0.00,3,Rain,145
2013-9-18,78,68,59,65,59,53,87,72,51,30.07,29.94,29.87,10,10,5,16,9,21,0.07,4,Rain,184
2013-9-19,85,75,66,69,66,64,93,83,58,29.87,29.81,29.72,10,9,2,17,10,23,0.37,5,Rain-Thunderstorm,197
2013-9-20,66,60,53,65,57,49,94,81,58,29.86,29.80,29.73,10,9,2,17,8,22,0.03,6,Rain,267
2013-9-21,60,52,45,51,45,42,93,77,52,29.96,29.91,29.86,10,10,10,14,6,21,0.01,4,,305
2013-9-22,64,51,38,44,41,37,95,73,45,30.09,30.03,29.97,10,10,10,9,4,,0.01,0,,89
2013-9-23,68,54,41,49,45,40,95,73,47,30.12,30.06,30.02,10,10,7,13,5,10,0.01,0,,123
2013-9-24,72,57,42,50,46,41,96,71,37,30.05,30.01,29.96,10,8,1,12,4,17,0.00,0,,98
2013-9-25,69,56,43,57,48,42,97,80,48,30.03,29.99,29.95,10,6,0,9,2,,0.00,4,Fog,88
2013-9-26,75,59,43,55,48,42,97,72,40,30.08,30.05,29.99,10,7,0,13,3,16,0.00,2,Fog,127
2013-9-27,80,66,52,51,48,43,81,55,27,30.12,30.07,30.02,10,10,10,16,7,21,0.00,0,,151
2013-9-28,79,66,52,64,52,46,93,69,43,30.02,29.93,29.81,10,9,2,24,10,33,0.04,3,Rain,196
2013-9-29,69,56,43,50,45,38,97,70,33,30.07,30.01,29.97,10,10,5,8,4,,0.02,0,,212
2013-9-30,72,60,48,48,42,38,81,56,29,29.98,29.89,29.79,10,10,10,22,9,25,0.00,0,,188